Flag for Germany Weather past 2 weeks in Mannheim, Baden-Württemberg, Germany

Now
46 °F

Clear.


Feels Like: 44 °F
Forecast: 33 / 52 °F
Wind: 5 mph from Northeast

Location: Baden Wurttemberg - Neuostheim

Current Time: Mar 6, 2015 at 7:43:25 PM

Latest Report: Mar 6, 2015 at 6:50 PM


Visibility: 10 mi

Pressure: 30.57 "Hg

Humidity: 57%

Dew point: 32 °F

Location of MannheimLocation

Historic Weather in Mannheim — Graph

°F

Mannheim temperature yesterday

Maximum temperature yesterday: 46 °F (at 1:50 PM)
Minimum temperature yesterday: 36 °F (at 6:50 AM)
Average temperature yesterday: 43 °F

Past Weeks' High & Low Weather Summary

 TemperatureHumidityPressure
High55 °F (Feb 20, 3:20 PM)100% (Feb 22, 7:50 AM)30.69 "Hg (Feb 22, 7:50 AM)
Low30 °F (Feb 28, 7:50 AM)35% (Mar 2, 3:20 PM)29.47 "Hg (Feb 23, 2:20 PM)
Average43 °F70%30.02 "Hg
* Reported Feb 19 6:20 PM — Mar 6 6:20 PM, Mannheim, Weather by CustomWeather, © 2015

Note: Actual official high and low records may vary slightly from our data, if they occured in-between our weather recording intervals... More about our weather records

Advertising

Mannheim weather history for previous 24 hours

 ConditionsComfort  
Time TempWeatherWind HumidityBarometerVisibility
6:20 PM
Fri, Mar 6
46 °FClear.3 mph57%30.57 "Hg10 mi
5:50 PM48 °FSunny.2 mph54%30.57 "Hg10 mi
5:20 PM48 °FSunny.3 mph50%30.57 "Hg10 mi
4:50 PM48 °FSunny.3 mph50%30.57 "Hg10 mi
4:20 PM48 °FPassing clouds.5 mph50%30.60 "HgN/A
3:50 PM48 °FPassing clouds.6 mph50%30.60 "HgN/A
3:20 PM48 °FPartly sunny.5 mph50%30.60 "HgN/A
2:50 PM48 °FPartly sunny.3 mph50%30.60 "HgN/A
2:20 PM48 °FOvercast.1 mph50%30.63 "HgN/A
1:50 PM48 °FOvercast.3 mph50%30.63 "HgN/A
1:20 PM48 °FPartly sunny.2 mph50%30.63 "HgN/A
12:50 PM48 °FScattered clouds.6 mph50%30.63 "HgN/A
12:20 PM48 °FPassing clouds.5 mph54%30.66 "HgN/A
11:50 AM45 °FScattered clouds.5 mph66%30.66 "HgN/A
11:20 AM45 °FPassing clouds.5 mph61%30.66 "HgN/A
10:50 AM45 °FScattered clouds.6 mph61%30.66 "HgN/A
10:20 AM41 °FPassing clouds.5 mph70%30.66 "HgN/A
9:50 AM39 °FScattered clouds.6 mph75%30.66 "HgN/A
9:20 AM37 °FPartly sunny.5 mph81%30.66 "HgN/A
8:50 AM36 °FScattered clouds.5 mph81%30.69 "HgN/A
8:20 AM34 °FScattered clouds.3 mph87%30.66 "HgN/A
7:50 AM32 °FPartly sunny.5 mph93%30.66 "HgN/A
7:20 AM32 °FPartly sunny.2 mph87%30.66 "HgN/A
6:50 AM32 °FOvercast.2 mph93%30.66 "HgN/A
6:20 AM30 °FPassing clouds.2 mph93%30.66 "HgN/A
5:50 AM30 °FClear.2 mph93%30.66 "Hg10 mi
8:50 PM
Thu, Mar 5
43 °FPassing clouds.7 mph61%30.63 "HgN/A
8:20 PM43 °FPassing clouds.7 mph61%30.63 "HgN/A
7:50 PM43 °FPassing clouds.5 mph57%30.63 "HgN/A
7:20 PM43 °FClear.5 mph57%30.63 "Hg10 mi
Weather by CustomWeather, © 2015

See weather overviewHow to use our weather pages